Tracking 19193 objects as of 23-Jun-2018
HD Live streaming from Space Station
objects crossing your sky now

COSMOS 1650 (GLONASS)

Track COSMOS 1650 (GLONASS) now!
COSMOS 1650 (GLONASS) is classified as:


NORAD ID: 15697
Int'l Code: 1985-037A
Perigee: 19,054.9 km
Apogee: 19,219.0 km
Inclination: 64.1 °
Period: 675.7 minutes
Semi major axis: 25507 km
RCS: 1.9242 m2 (large)
Launch date: May 17, 1985
Source: Commonwealth of Independent States (former USSR) (CIS)
Launch site: TYURATAM MISSILE AND SPACE COMPLEX (TTMTR)
SV:
aabbcc
Your satellite tracking list
Your tracking list is empty




NASA's NSSDC Master Catalog

Two Line Element Set (TLE):
1 15697U 85037A   18173.76233985  .00000099  00000-0  00000+0 0  9991
2 15697  64.1140 173.4851 0032170   9.7077 238.8082  2.13102623234198
Source of the keplerian elements: AFSPC